Private Wetterstation Sandau
Wetterdaten: Woche 04.02.13 - 10.02.13 (KW6)
Datum Zeit Temp. A. Feuchte A. Luftdruck Regen Wind Richtung Taupunkt Windchill
04.02.2013 00:00 1,9 C 92 % 1003,4 hPa 1,0 l/m 13,7 km/h (3 Bft) W 0,8 C -1,5 C
04.02.2013 01:00 2,2 C 92 % 1003,6 hPa 0,0 l/m 7,7 km/h (2 Bft) W 1,1 C 0,1 C
04.02.2013 02:00 2,3 C 92 % 1004,0 hPa 0,0 l/m 8,7 km/h (2 Bft) W 1,2 C 0,0 C
04.02.2013 03:00 2,5 C 92 % 1004,5 hPa 0,0 l/m 10,1 km/h (2 Bft) W-NW 1,3 C -0,1 C
04.02.2013 04:00 2,2 C 92 % 1004,8 hPa 0,0 l/m 9,5 km/h (2 Bft) W-SW 1,0 C -0,5 C
04.02.2013 05:00 1,8 C 92 % 1004,9 hPa 0,5 l/m 8,0 km/h (2 Bft) W-SW 0,6 C -0,6 C
04.02.2013 06:00 1,9 C 92 % 1004,6 hPa 0,0 l/m 7,5 km/h (2 Bft) W-SW 0,7 C -0,1 C
04.02.2013 07:00 1,9 C 92 % 1004,3 hPa 0,0 l/m 5,4 km/h (1 Bft) S-SW 0,8 C 0,6 C
04.02.2013 08:00 2,1 C 92 % 1004,1 hPa 0,5 l/m 5,9 km/h (2 Bft) S-SW 1,0 C 0,7 C
04.02.2013 09:00 3,0 C 93 % 1003,4 hPa 1,0 l/m 7,0 km/h (2 Bft) SW 2,0 C 1,1 C
04.02.2013 10:00 3,7 C 93 % 1002,1 hPa 1,0 l/m 12,8 km/h (3 Bft) W-SW 2,7 C 0,7 C
04.02.2013 11:00 4,3 C 94 % 1000,8 hPa 0,5 l/m 12,3 km/h (3 Bft) S-SW 3,3 C 1,5 C
04.02.2013 12:00 4,6 C 93 % 999,8 hPa 0,5 l/m 17,6 km/h (3 Bft) W-SW 3,6 C 1,1 C
04.02.2013 13:00 5,9 C 94 % 999,4 hPa 0,0 l/m 16,1 km/h (3 Bft) W-NW 5,0 C 2,9 C
04.02.2013 14:00 7,5 C 87 % 999,8 hPa 0,0 l/m 17,2 km/h (3 Bft) W-NW 5,5 C 4,7 C
04.02.2013 15:00 6,8 C 81 % 1000,5 hPa 0,0 l/m 16,9 km/h (3 Bft) W-NW 3,8 C 3,8 C
04.02.2013 16:00 6,6 C 76 % 1001,5 hPa 0,0 l/m 18,4 km/h (3 Bft) W 2,7 C 3,4 C
04.02.2013 17:00 5,9 C 76 % 1002,0 hPa 0,0 l/m 12,6 km/h (3 Bft) W 2,0 C 3,4 C
04.02.2013 18:00 5,3 C 78 % 1002,6 hPa 0,0 l/m 14,2 km/h (3 Bft) W-SW 1,7 C 2,4 C
04.02.2013 19:00 4,6 C 79 % 1003,2 hPa 0,0 l/m 11,6 km/h (2 Bft) W 1,2 C 1,9 C
04.02.2013 20:00 4,4 C 79 % 1003,5 hPa 0,0 l/m 14,7 km/h (3 Bft) W 1,1 C 1,2 C
04.02.2013 21:00 4,1 C 80 % 1003,3 hPa 0,0 l/m 13,7 km/h (3 Bft) W-SW 1,0 C 1,1 C
04.02.2013 22:00 4,0 C 81 % 1003,1 hPa 0,0 l/m 20,0 km/h (4 Bft) W 1,1 C -0,0 C
04.02.2013 23:00 3,8 C 82 % 1003,0 hPa 0,0 l/m 14,9 km/h (3 Bft) W-SW 1,0 C 0,6 C
05.02.2013 00:00 3,8 C 82 % 1002,8 hPa 0,0 l/m 19,4 km/h (3 Bft) W 1,0 C -0,3 C
05.02.2013 01:00 3,4 C 83 % 1002,3 hPa 0,0 l/m 17,0 km/h (3 Bft) W-SW 0,8 C -0,4 C
05.02.2013 02:00 3,3 C 84 % 1001,7 hPa 0,0 l/m 20,0 km/h (4 Bft) W-SW 0,8 C -1,0 C
05.02.2013 03:00 3,3 C 83 % 1000,8 hPa 0,0 l/m 19,0 km/h (3 Bft) W-SW 0,7 C -0,9 C
05.02.2013 04:00 3,4 C 83 % 999,9 hPa 0,0 l/m 13,2 km/h (3 Bft) W-SW 0,9 C 0,4 C
05.02.2013 05:00 3,2 C 84 % 999,1 hPa 0,0 l/m 10,7 km/h (2 Bft) W-SW 0,7 C 0,5 C
05.02.2013 06:00 3,6 C 83 % 998,2 hPa 0,0 l/m 12,5 km/h (3 Bft) W-SW 1,1 C 0,7 C
05.02.2013 07:00 3,4 C 83 % 997,4 hPa 0,0 l/m 6,2 km/h (2 Bft) S-SO 0,8 C 2,0 C
05.02.2013 08:00 2,9 C 86 % 996,8 hPa 0,0 l/m 9,1 km/h (2 Bft) S-SW 0,7 C 0,6 C
05.02.2013 09:00 3,7 C 85 % 995,9 hPa 0,5 l/m 7,8 km/h (2 Bft) S-SW 1,4 C 1,9 C
05.02.2013 10:00 4,3 C 83 % 994,6 hPa 0,0 l/m 15,6 km/h (3 Bft) S 1,7 C 0,9 C
05.02.2013 11:00 5,0 C 79 % 993,7 hPa 1,0 l/m 16,5 km/h (3 Bft) S-SW 1,7 C 1,7 C
05.02.2013 12:00 4,5 C 82 % 993,6 hPa 0,5 l/m 22,0 km/h (4 Bft) W-SW 1,7 C 0,3 C
05.02.2013 13:00 4,0 C 85 % 993,3 hPa 0,0 l/m 21,0 km/h (4 Bft) W-SW 1,7 C -0,2 C
05.02.2013 14:00 2,9 C 87 % 993,5 hPa 0,5 l/m 14,0 km/h (3 Bft) W 1,0 C -0,0 C
05.02.2013 15:00 2,7 C 87 % 994,1 hPa 0,0 l/m 13,5 km/h (3 Bft) W 0,8 C -0,4 C
05.02.2013 16:00 2,6 C 84 % 994,4 hPa 0,0 l/m 14,8 km/h (3 Bft) W 0,3 C -1,0 C
05.02.2013 17:00 1,8 C 86 % 994,9 hPa 0,0 l/m 10,8 km/h (2 Bft) W -0,3 C -1,2 C
05.02.2013 18:00 0,8 C 90 % 995,3 hPa 0,0 l/m 7,0 km/h (2 Bft) W -0,7 C -1,0 C
05.02.2013 19:00 0,6 C 90 % 995,4 hPa 0,0 l/m 9,1 km/h (2 Bft) W -0,8 C -2,2 C
05.02.2013 20:00 0,5 C 90 % 995,6 hPa 0,0 l/m 11,1 km/h (2 Bft) W-SW -0,9 C -2,9 C
05.02.2013 21:00 0,5 C 90 % 996,2 hPa 0,0 l/m 11,0 km/h (2 Bft) W-SW -0,9 C -2,6 C
05.02.2013 22:00 0,6 C 90 % 996,4 hPa 0,0 l/m 9,1 km/h (2 Bft) W-SW -0,9 C -2,2 C
05.02.2013 23:00 0,3 C 89 % 996,7 hPa 0,0 l/m 8,6 km/h (2 Bft) W-SW -1,3 C -2,3 C
06.02.2013 00:00 -0,1 C 89 % 996,9 hPa 0,0 l/m 8,5 km/h (2 Bft) W-SW -1,7 C -2,9 C
06.02.2013 01:00 -0,3 C 89 % 996,9 hPa 0,0 l/m 10,7 km/h (2 Bft) W-SW -1,9 C -3,6 C
06.02.2013 02:00 -0,5 C 89 % 997,2 hPa 0,0 l/m 8,0 km/h (2 Bft) SW -2,1 C -3,0 C
06.02.2013 03:00 -0,7 C 90 % 997,1 hPa 0,0 l/m 8,2 km/h (2 Bft) W-SW -2,2 C -3,5 C
06.02.2013 04:00 -0,8 C 90 % 997,0 hPa 0,0 l/m 7,7 km/h (2 Bft) W-SW -2,2 C -3,4 C
06.02.2013 05:00 -1,3 C 89 % 997,2 hPa 0,0 l/m 4,7 km/h (1 Bft) SW -2,9 C -2,4 C
06.02.2013 06:00 -1,2 C 90 % 997,3 hPa 0,0 l/m 7,7 km/h (2 Bft) W-SW -2,7 C -3,8 C
06.02.2013 07:00 -1,3 C 89 % 997,5 hPa 0,0 l/m 7,2 km/h (2 Bft) W-SW -2,9 C -3,7 C
06.02.2013 08:00 -1,3 C 89 % 997,8 hPa 0,0 l/m 6,0 km/h (2 Bft) SW -2,8 C -3,2 C
06.02.2013 09:00 -0,2 C 88 % 998,1 hPa 0,0 l/m 8,0 km/h (2 Bft) S-SW -1,9 C -2,9 C
06.02.2013 10:00 1,2 C 85 % 998,4 hPa 0,5 l/m 7,5 km/h (2 Bft) SW -1,1 C -0,9 C
06.02.2013 11:00 2,0 C 82 % 998,5 hPa 0,0 l/m 7,6 km/h (2 Bft) SW -0,7 C 0,1 C
06.02.2013 12:00 2,9 C 81 % 998,3 hPa 0,5 l/m 7,1 km/h (2 Bft) W-SW -0,2 C 1,1 C
06.02.2013 13:00 3,3 C 79 % 998,5 hPa 0,0 l/m 8,2 km/h (2 Bft) W-SW 0,1 C 1,3 C
06.02.2013 14:00 3,3 C 79 % 998,7 hPa 0,0 l/m 7,3 km/h (2 Bft) W-SW -0,0 C 1,4 C
06.02.2013 15:00 3,1 C 78 % 998,7 hPa 0,0 l/m 6,8 km/h (2 Bft) W -0,4 C 1,4 C
06.02.2013 16:00 3,0 C 77 % 998,7 hPa 0,0 l/m 8,6 km/h (2 Bft) W-SW -0,6 C 0,8 C
06.02.2013 17:00 2,8 C 78 % 999,0 hPa 0,0 l/m 6,8 km/h (2 Bft) W-SW -0,8 C 1,3 C
06.02.2013 18:00 2,6 C 78 % 999,7 hPa 0,0 l/m 5,7 km/h (1 Bft) W-SW -0,8 C 1,4 C
06.02.2013 19:00 2,5 C 79 % 1000,2 hPa 0,0 l/m 10,2 km/h (2 Bft) W-SW -0,8 C -0,3 C
06.02.2013 20:00 2,0 C 80 % 1000,3 hPa 0,0 l/m 11,7 km/h (2 Bft) W-SW -1,0 C -1,2 C
06.02.2013 21:00 2,1 C 82 % 1000,4 hPa 0,0 l/m 11,5 km/h (2 Bft) W-SW -0,8 C -1,1 C
06.02.2013 22:00 2,1 C 83 % 1000,6 hPa 0,0 l/m 12,4 km/h (3 Bft) W -0,5 C -1,2 C
06.02.2013 23:00 2,0 C 85 % 1000,8 hPa 0,0 l/m 12,6 km/h (3 Bft) W-SW -0,2 C -1,1 C
07.02.2013 00:00 1,7 C 87 % 1001,1 hPa 0,0 l/m 10,5 km/h (2 Bft) W-SW -0,2 C -1,1 C
07.02.2013 01:00 2,0 C 88 % 1001,4 hPa 0,0 l/m 9,2 km/h (2 Bft) W 0,3 C -0,4 C
07.02.2013 02:00 1,9 C 88 % 1001,7 hPa 0,0 l/m 5,2 km/h (1 Bft) W 0,2 C 0,8 C
07.02.2013 03:00 1,1 C 89 % 1002,0 hPa 0,0 l/m 4,0 km/h (1 Bft) W-NW -0,5 C 0,5 C
07.02.2013 04:00 1,2 C 91 % 1002,5 hPa 0,0 l/m 6,1 km/h (2 Bft) NW -0,2 C -0,4 C
07.02.2013 05:00 1,0 C 90 % 1003,2 hPa 0,0 l/m 5,3 km/h (1 Bft) W-NW -0,5 C -0,4 C
07.02.2013 06:00 0,6 C 90 % 1003,9 hPa 0,0 l/m 4,2 km/h (1 Bft) N -0,9 C -0,1 C
07.02.2013 07:00 0,6 C 88 % 1004,5 hPa 0,0 l/m 6,2 km/h (2 Bft) NW -1,1 C -1,0 C
07.02.2013 08:00 0,5 C 88 % 1005,2 hPa 0,0 l/m 3,8 km/h (1 Bft) W-NW -1,3 C -0,3 C
07.02.2013 09:00 0,6 C 86 % 1005,9 hPa 0,0 l/m 3,9 km/h (1 Bft) W-NW -1,5 C 0,0 C
07.02.2013 10:00 0,9 C 84 % 1006,4 hPa 0,0 l/m 5,1 km/h (1 Bft) W-NW -1,5 C -0,2 C
07.02.2013 11:00 1,9 C 81 % 1006,9 hPa 0,0 l/m 3,9 km/h (1 Bft) W-NW -1,0 C 1,3 C
07.02.2013 12:00 2,7 C 79 % 1007,0 hPa 0,0 l/m 4,1 km/h (1 Bft) W-NW -0,6 C 1,9 C
07.02.2013 13:00 2,3 C 81 % 1007,1 hPa 0,0 l/m 7,0 km/h (2 Bft) W-NW -0,7 C 0,4 C
07.02.2013 14:00 1,6 C 84 % 1007,4 hPa 0,0 l/m 5,8 km/h (2 Bft) N-NO -0,9 C 0,0 C
07.02.2013 15:00 2,1 C 82 % 1007,8 hPa 0,0 l/m 3,6 km/h (1 Bft) NW -0,7 C 1,6 C
07.02.2013 16:00 1,8 C 79 % 1008,1 hPa 0,0 l/m 3,2 km/h (1 Bft) NW -1,4 C 1,3 C
07.02.2013 17:00 0,9 C 82 % 1008,5 hPa 0,0 l/m 4,3 km/h (1 Bft) W -1,9 C -0,1 C
07.02.2013 18:00 0,4 C 87 % 1008,8 hPa 0,0 l/m 2,2 km/h (1 Bft) W -1,5 C 0,1 C
07.02.2013 19:00 0,3 C 89 % 1008,9 hPa 0,0 l/m 3,6 km/h (1 Bft) W -1,3 C -0,4 C
07.02.2013 20:00 0,4 C 89 % 1009,1 hPa 0,0 l/m 5,9 km/h (2 Bft) W-NW -1,2 C -1,1 C
07.02.2013 21:00 0,4 C 89 % 1009,4 hPa 0,0 l/m 4,2 km/h (1 Bft) NW -1,2 C -0,3 C
07.02.2013 22:00 0,2 C 90 % 1009,7 hPa 0,0 l/m 4,4 km/h (1 Bft) W -1,2 C -0,8 C
07.02.2013 23:00 0,3 C 91 % 1009,8 hPa 0,0 l/m 3,3 km/h (1 Bft) W -1,0 C -0,2 C
08.02.2013 00:00 0,2 C 91 % 1009,9 hPa 0,0 l/m 2,5 km/h (1 Bft) W-NW -1,1 C 0,1 C
08.02.2013 01:00 0,0 C 91 % 1009,8 hPa 0,0 l/m 5,4 km/h (1 Bft) NW -1,3 C -1,4 C
08.02.2013 02:00 -0,1 C 91 % 1009,9 hPa 0,0 l/m 5,3 km/h (1 Bft) NW -1,4 C -1,6 C
08.02.2013 03:00 -0,2 C 91 % 1009,9 hPa 0,0 l/m 3,5 km/h (1 Bft) W-NW -1,5 C -0,6 C
08.02.2013 04:00 -0,4 C 91 % 1009,9 hPa 0,0 l/m 5,2 km/h (1 Bft) NW -1,7 C -1,6 C
08.02.2013 05:00 -0,4 C 91 % 1010,1 hPa 0,0 l/m 4,3 km/h (1 Bft) W-NW -1,7 C -1,4 C
08.02.2013 06:00 -0,4 C 91 % 1010,3 hPa 0,0 l/m 5,2 km/h (1 Bft) W-NW -1,7 C -1,6 C
08.02.2013 07:00 -0,4 C 90 % 1010,4 hPa 0,0 l/m 4,0 km/h (1 Bft) W-NW -1,8 C -1,4 C
08.02.2013 08:00 -0,5 C 91 % 1010,7 hPa 0,0 l/m 2,8 km/h (1 Bft) W-SW -1,8 C -0,8 C
08.02.2013 09:00 -0,2 C 91 % 1010,7 hPa 0,0 l/m 4,9 km/h (1 Bft) W-NW -1,5 C -1,3 C
08.02.2013 10:00 0,3 C 90 % 1010,9 hPa 0,0 l/m 5,3 km/h (1 Bft) NW -1,2 C -1,3 C
08.02.2013 11:00 0,9 C 89 % 1011,2 hPa 0,0 l/m 4,4 km/h (1 Bft) NW -0,7 C 0,1 C
08.02.2013 12:00 1,5 C 86 % 1011,4 hPa 0,0 l/m 7,2 km/h (2 Bft) NW -0,7 C -0,3 C
08.02.2013 13:00 1,9 C 84 % 1011,5 hPa 0,0 l/m 5,5 km/h (1 Bft) NW -0,5 C 0,6 C
08.02.2013 14:00 2,4 C 82 % 1011,6 hPa 1,6 l/m 8,9 km/h (2 Bft) NW -0,4 C 0,1 C
08.02.2013 15:00 1,3 C 84 % 1011,8 hPa 0,0 l/m 5,6 km/h (1 Bft) W-NW -1,2 C 0,1 C
08.02.2013 16:00 0,4 C 88 % 1012,2 hPa 0,0 l/m 5,3 km/h (1 Bft) NW -1,3 C -0,9 C
08.02.2013 17:00 0,4 C 89 % 1012,7 hPa 0,0 l/m 4,1 km/h (1 Bft) W-NW -1,2 C -0,7 C
08.02.2013 18:00 0,0 C 90 % 1013,1 hPa 0,0 l/m 1,4 km/h (1 Bft) NW -1,4 C -0,2 C
08.02.2013 19:00 -0,2 C 90 % 1013,6 hPa 0,0 l/m 4,1 km/h (1 Bft) NW -1,6 C -0,9 C
08.02.2013 20:00 -0,4 C 91 % 1013,8 hPa 0,0 l/m 3,6 km/h (1 Bft) N-NO -1,7 C -0,9 C
08.02.2013 21:00 -0,4 C 91 % 1014,1 hPa 0,0 l/m 3,9 km/h (1 Bft) NW -1,7 C -1,3 C
08.02.2013 22:00 -0,7 C 91 % 1014,4 hPa 0,0 l/m 2,0 km/h (1 Bft) NW -1,9 C -0,8 C
08.02.2013 23:00 -0,7 C 91 % 1014,6 hPa 0,0 l/m 2,9 km/h (1 Bft) W-NW -2,0 C -1,5 C
09.02.2013 00:00 -0,5 C 91 % 1014,8 hPa 0,0 l/m 4,3 km/h (1 Bft) W-SW -1,8 C -1,6 C
09.02.2013 01:00 -0,4 C 92 % 1014,9 hPa 0,0 l/m 1,3 km/h (1 Bft) W-NW -1,5 C -0,5 C
09.02.2013 02:00 -0,2 C 92 % 1015,1 hPa 0,0 l/m 4,5 km/h (1 Bft) N-NO -1,3 C -1,3 C
09.02.2013 03:00 -0,2 C 93 % 1015,3 hPa 0,0 l/m 5,2 km/h (1 Bft) N-NO -1,2 C -1,7 C
09.02.2013 04:00 -0,4 C 93 % 1015,4 hPa 0,0 l/m 4,4 km/h (1 Bft) N-NO -1,3 C -1,4 C
09.02.2013 05:00 -0,2 C 93 % 1015,5 hPa 0,0 l/m 4,4 km/h (1 Bft) N-NO -1,2 C -1,3 C
09.02.2013 06:00 -0,4 C 93 % 1015,9 hPa 0,0 l/m 4,0 km/h (1 Bft) N-NO -1,4 C -1,3 C
09.02.2013 07:00 -0,5 C 92 % 1016,4 hPa 0,0 l/m 6,5 km/h (2 Bft) N-NO -1,6 C -2,5 C
09.02.2013 08:00 -0,3 C 92 % 1017,0 hPa 0,0 l/m 4,1 km/h (1 Bft) N-NO -1,5 C -1,1 C
09.02.2013 09:00 0,3 C 91 % 1017,4 hPa 0,0 l/m 2,9 km/h (1 Bft) N -1,1 C -0,2 C
09.02.2013 10:00 0,9 C 89 % 1017,8 hPa 0,0 l/m 3,8 km/h (1 Bft) NW -0,7 C 0,1 C
09.02.2013 11:00 1,4 C 86 % 1017,9 hPa 1,6 l/m 3,8 km/h (1 Bft) W-NW -0,6 C 0,8 C
09.02.2013 12:00 1,5 C 85 % 1018,0 hPa 0,5 l/m 4,8 km/h (1 Bft) W-NW -0,8 C 0,6 C
09.02.2013 13:00 1,8 C 83 % 1017,9 hPa 0,5 l/m 5,2 km/h (1 Bft) W-SW -0,8 C 0,6 C
09.02.2013 14:00 1,0 C 83 % 1017,9 hPa 0,0 l/m 4,1 km/h (1 Bft) W -1,5 C 0,3 C
09.02.2013 15:00 0,7 C 84 % 1018,1 hPa 0,0 l/m 5,9 km/h (2 Bft) W-NW -1,7 C -1,0 C
09.02.2013 16:00 -0,2 C 84 % 1018,3 hPa 0,0 l/m 4,3 km/h (1 Bft) W-NW -2,6 C -1,2 C
09.02.2013 17:00 -0,8 C 85 % 1018,5 hPa 0,0 l/m 2,9 km/h (1 Bft) W -2,9 C -1,3 C
09.02.2013 18:00 -0,9 C 87 % 1018,6 hPa 0,0 l/m 3,6 km/h (1 Bft) W-NW -2,8 C -1,7 C
09.02.2013 19:00 -1,1 C 88 % 1018,7 hPa 0,0 l/m 0,8 km/h (0 Bft) W -2,8 C -1,2 C
09.02.2013 20:00 -1,6 C 88 % 1018,8 hPa 0,0 l/m 2,3 km/h (1 Bft) W-NW -3,2 C -2,1 C
09.02.2013 21:00 -2,3 C 89 % 1018,7 hPa 0,0 l/m 0,9 km/h (0 Bft) W -3,9 C -2,3 C
09.02.2013 22:00 -2,6 C 90 % 1018,5 hPa 0,0 l/m 0,0 km/h (0 Bft) N -4,0 C -2,6 C
09.02.2013 23:00 -3,1 C 90 % 1018,6 hPa 0,0 l/m 1,5 km/h (1 Bft) SW -4,5 C -3,4 C
10.02.2013 00:00 -3,1 C 90 % 1018,7 hPa 0,0 l/m 0,8 km/h (0 Bft) S -4,5 C -3,1 C
10.02.2013 01:00 -3,0 C 90 % 1018,7 hPa 0,0 l/m 0,9 km/h (0 Bft) S -4,4 C -3,0 C
10.02.2013 02:00 -3,1 C 90 % 1018,6 hPa 0,0 l/m 0,8 km/h (0 Bft) SO -4,5 C -3,1 C
10.02.2013 03:00 -3,2 C 90 % 1018,4 hPa 0,0 l/m 0,9 km/h (0 Bft) S-SW -4,6 C -3,2 C
10.02.2013 04:00 -3,2 C 90 % 1018,2 hPa 0,0 l/m 1,0 km/h (0 Bft) S-SO -4,6 C -3,2 C
10.02.2013 05:00 -4,0 C 91 % 1018,0 hPa 0,0 l/m 2,5 km/h (1 Bft) O-SO -5,2 C -4,3 C
10.02.2013 06:00 -4,7 C 91 % 1017,9 hPa 0,0 l/m 2,2 km/h (1 Bft) SO -5,9 C -4,7 C
10.02.2013 07:00 -4,6 C 92 % 1018,2 hPa 0,0 l/m 2,3 km/h (1 Bft) SO -5,8 C -4,6 C
10.02.2013 08:00 -4,0 C 92 % 1018,2 hPa 0,0 l/m 3,1 km/h (1 Bft) S-SO -5,1 C -4,2 C
10.02.2013 09:00 -3,5 C 92 % 1018,2 hPa 0,0 l/m 1,8 km/h (1 Bft) SO -4,6 C -3,7 C
10.02.2013 10:00 -2,9 C 91 % 1018,1 hPa 0,0 l/m 2,1 km/h (1 Bft) SO -4,1 C -3,1 C
10.02.2013 11:00 -2,1 C 90 % 1017,9 hPa 0,0 l/m 3,4 km/h (1 Bft) O-SO -3,6 C -2,6 C
10.02.2013 12:00 -2,2 C 89 % 1017,5 hPa 0,0 l/m 4,7 km/h (1 Bft) SO -3,7 C -3,5 C
10.02.2013 13:00 -1,5 C 89 % 1016,9 hPa 0,0 l/m 3,5 km/h (1 Bft) O-SO -3,0 C -2,4 C
10.02.2013 14:00 -0,9 C 88 % 1016,4 hPa 0,0 l/m 4,0 km/h (1 Bft) SO -2,7 C -1,9 C
10.02.2013 15:00 -1,0 C 87 % 1016,2 hPa 0,0 l/m 5,3 km/h (1 Bft) SO -2,9 C -2,7 C
10.02.2013 16:00 -1,6 C 86 % 1015,8 hPa 0,0 l/m 6,1 km/h (2 Bft) O-SO -3,6 C -3,7 C
10.02.2013 17:00 -2,5 C 87 % 1015,6 hPa 0,0 l/m 6,9 km/h (2 Bft) O-SO -4,3 C -4,8 C
10.02.2013 18:00 -2,8 C 88 % 1015,5 hPa 0,0 l/m 9,1 km/h (2 Bft) O -4,5 C -6,2 C
10.02.2013 19:00 -4,0 C 89 % 1015,5 hPa 0,0 l/m 7,4 km/h (2 Bft) SO -5,6 C -7,1 C
10.02.2013 20:00 -4,5 C 89 % 1015,4 hPa 0,0 l/m 6,4 km/h (2 Bft) SO -6,0 C -6,8 C
10.02.2013 21:00 -4,9 C 89 % 1015,3 hPa 0,0 l/m 4,8 km/h (1 Bft) O-SO -6,5 C -6,6 C
10.02.2013 22:00 -5,2 C 90 % 1015,0 hPa 0,0 l/m 5,7 km/h (1 Bft) O -6,6 C -7,2 C
10.02.2013 23:00 -5,5 C 90 % 1014,8 hPa 0,0 l/m 6,7 km/h (2 Bft) O-SO -6,9 C -8,3 C
Min-Datum _ 10.02.13 04.02.13 05.02.13 - 06.02.13 - 10.02.13 10.02.13
_ Min-Zeit 23:51 16:41 13:21 - 15:46 - 23:51 23:51
Minimum _ -5,7 C 74 % 993,1 hPa - 0,0 km/h (0 Bft) - -7,1 C -10,0 C
Max-Datum _ 04.02.13 04.02.13 09.02.13 08.02.13 04.02.13 - 04.02.13 04.02.13
_ Max-Zeit 14:26 10:56 20:36 14:06 12:31 - 14:06 14:31
Maximum _ 7,8 C 94 % 1019,0 hPa 1,6 l/m 36,0 km/h
W-SW (5 Bft)
- 6,1 C 6,4 C
Durchschnitt _ 0,8 C 87 % 1007,1 hPa #12,9 l/m 7,3 km/h (2 Bft) W-SW -1,1 C -1,0 C
(c) by David Heller